Temperature
18 18 18 18 18 18 18 18 18 18 18 18 18 18 18 18 18 18 18 18 18 18 18 18 17 17 17 17 17 17 17 16 16 16 16 16 16 16 16 16 16 16 16
18 18 18 18 18 18 18 18 18 18 18 18 18 18 18 18 18 18 18 18 18 18 18 18 18 17 17 17 17 17 17 16 16 16 16 16 16 16 16 16 16 16 16
18 18 18 18 18 18 18 18 18 18 18 18 18 18 18 18 18 18 18 18 18 18 18 18 18 18 17 17 17 17 17 17 17 16 16 16 16 16 16 16 16 16 16
18 18 18 18 18 18 18 18 18 18 18 18 18 18 18 18 18 18 18 18 18 18 18 18 18 17 17 17 17 17 17 17 17 17 16 16 16 16 16 16 16 16 16
18 18 18 18 18 18 18 18 18 18 18 18 18 18 18 18 18 18 18 18 18 18 18 17 17 17 17 17 17 17 17 17 17 17 16 16 16 16 16 16 16 16 16
18 18 18 18 18 18 18 18 18 18 18 18 18 18 18 18 18 18 18 18 18 18 18 17 17 17 17 17 17 17 17 17 17 17 16 16 16 16 16 16 16 16 16
18 18 18 18 18 18 18 18 18 18 18 18 18 18 18 19 18 18 18 18 18 18 18 17 17 17 17 17 17 17 17 17 16 16 16 16 16 16 16 16 16 16 16
19 18 18 18 18 18 18 18 18 18 18 18 18 18 18 18 19 19 18 18 18 18 18 18 17 17 17 17 17 16 16 16 16 16 16 16 16 16 16 16 16 16 15
19 18 18 18 18 18 18 18 18 18 18 18 18 18 18 18 18 19 18 18 18 18 18 17 17 17 17 17 17 16 16 16 16 16 16 16 16 16 16 16 15 15 15
18 18 18 18 18 18 18 18 18 18 18 18 18 18 18 18 18 18 18 18 18 17 17 17 17 17 17 17 16 16 16 16 16 16 16 16 16 16 15 15 15 15 15
18 18 18 18 18 18 18 18 18 18 18 18 18 18 18 18 18 17 17 17 17 17 17 17 17 17 16 16 16 16 16 16 16 16 16 16 15 15 15 15 15 15 15
18 18 18 18 18 18 18 18 18 18 18 18 18 17 17 17 17 17 17 17 17 17 16 16 16 16 16 16 16 16 16 16 15 15 15 15 15 15 15 15 15 14 14
18 18 18 18 18 18 18 18 18 17 17 17 17 17 17 17 17 17 17 17 16 16 16 16 16 16 16 16 16 15 15 15 15 15 15 15 15 15 15 14 14 14 14
18 18 18 18 17 17 17 17 17 17 17 17 17 17 17 17 17 17 16 16 16 16 16 16 15 15 15 15 15 15 15 15 15 15 15 15 14 14 14 14 14 14 14
18 18 17 17 17 17 17 17 17 17 17 16 16 17 16 16 16 16 16 16 16 15 15 15 15 15 15 15 15 15 14 14 14 14 14 14 14 14 14 13 13 13 13
17 17 17 17 17 17 17 17 16 16 16 16 16 16 16 16 16 16 16 16 16 16 15 15 14 14 14 14 14 14 14 14 14 14 13 13 13 13 13 13 13 13 12
17 17 17 17 16 16 16 16 16 16 16 16 16 16 16 15 15 15 15 15 15 15 15 14 14 14 14 14 14 13 13 13 13 13 13 13 13 12 12 12 12 12 12
17 17 16 16 16 16 16 16 16 16 16 16 15 15 15 15 15 15 15 15 15 15 15 14 13 13 13 13 13 13 13 13 12 12 12 12 12 12 12 12 12 12 11
16 16 16 16 16 16 16 16 15 15 15 15 15 15 15 15 15 15 15 14 14 14 14 14 13 13 13 12 13 12 12 12 12 11 11 11 11 11 11 11 11 11 11
16 16 16 16 16 16 15 15 15 15 15 15 14 14 14 14 14 14 14 14 14 14 14 13 13 13 12 12 12 12 12 11 11 11 11 11 10 10 10 10 10 10 10
16 16 16 16 15 15 15 15 15 15 14 14 14 14 14 14 14 14 14 14 14 13 13 13 12 12 12 12 12 11 11 11 11 10 10 10 10 10 10 10 9 9 9
15 15 15 15 15 15 15 15 14 14 14 14 14 13 13 13 13 13 13 13 13 13 13 12 12 12 12 12 11 11 11 11 10 10 10 10 10 9 9 9 9 9 9
15 15 15 15 15 15 15 14 14 14 14 13 13 13 12 13 13 13 13 13 13 12 12 12 12 11 11 11 11 11 11 10 10 10 10 9 9 9 9 9 9 8 8
15 15 15 15 15 15 14 14 14 13 13 13 13 13 13 13 12 12 12 12 12 12 12 12 12 11 11 11 11 11 11 10 10 10 10 9 9 9 9 8 8 8 8
14 14 15 14 14 14 14 13 13 13 13 12 12 12 12 12 12 12 12 12 12 11 11 11 11 11 11 11 11 11 10 10 10 9 9 9 9 9 8 8 8 8 8
14 14 14 14 14 14 13 13 13 12 12 12 12 12 12 12 12 12 12 11 11 11 11 11 11 11 11 10 10 10 10 10 10 9 9 9 9 8 8 8 8 8 7
Wind_Speed
2 2 1 0 1 3 4 2 1 2 1 1 2 1 1 4 7 9 11 14 14 13 12 11 10 9 9 9 9 9 9 9 9 9 9 9 8 8 8 8 8 7 7
2 2 1 0 1 1 1 1 1 2 1 2 1 1 1 3 5 8 12 13 14 13 13 12 11 10 10 10 10 10 10 10 10 10 10 10 9 9 9 9 9 9 8
2 1 1 2 1 1 1 1 2 1 2 2 2 2 2 2 4 6 10 12 12 14 14 13 13 12 12 11 11 11 10 10 10 11 11 11 10 10 10 10 10 10 10
2 2 2 1 2 2 1 1 2 2 1 1 0 1 1 3 4 6 7 9 11 12 14 15 14 14 13 13 12 12 12 11 11 11 11 11 10 10 10 11 11 11 11
3 3 2 1 3 2 2 2 1 1 1 2 2 2 2 3 4 6 6 8 9 10 12 16 17 15 14 13 13 13 12 12 12 12 12 12 11 11 11 11 12 12 12
3 3 3 3 3 2 1 1 0 1 2 3 3 1 2 2 3 4 5 6 8 9 10 11 13 13 14 14 13 13 13 12 12 12 13 13 13 13 13 13 13 14 14
2 3 2 1 2 2 2 2 1 2 3 3 1 1 2 2 3 3 3 3 4 7 8 10 11 11 11 15 15 14 13 12 12 12 13 13 13 14 14 14 14 14 13
3 3 2 2 1 1 1 2 2 2 3 1 1 1 1 2 2 3 2 3 3 3 4 8 10 9 8 8 11 14 13 11 10 10 10 11 12 13 13 13 14 15 14
2 2 1 1 1 1 1 2 2 3 2 2 1 1 1 2 1 2 2 2 2 2 1 3 5 7 7 6 6 10 12 11 10 10 9 9 9 10 11 12 12 12 13
3 2 2 1 1 1 1 2 2 2 2 2 2 2 3 2 1 1 2 1 1 1 1 1 2 4 6 6 6 7 9 9 9 8 8 9 9 9 10 11 11 10 11
2 1 1 0 0 1 1 2 2 2 2 2 2 1 2 2 3 2 2 1 1 1 0 1 1 1 3 4 5 6 7 8 8 8 8 8 9 9 9 10 10 11 11
1 1 1 0 1 1 1 2 2 2 2 2 2 2 2 2 2 2 2 2 1 1 1 0 1 2 3 3 3 3 5 6 6 5 5 6 7 8 8 8 8 9 9
0 1 1 0 1 1 1 1 1 1 1 1 1 2 2 2 1 1 2 2 1 1 0 1 3 3 4 6 6 6 5 4 4 4 3 3 3 4 4 5 5 5 6
1 2 1 1 2 2 2 1 1 1 2 2 2 2 2 2 2 1 1 1 1 0 1 2 3 5 7 8 8 8 7 6 4 4 3 2 2 2 2 2 0 1 2
1 2 2 2 2 2 2 3 3 3 2 2 2 3 2 2 2 1 0 1 1 1 0 1 2 3 5 7 8 8 9 9 9 9 8 7 6 6 5 5 5 4 3
3 3 3 3 3 3 3 3 3 3 3 3 2 3 2 2 2 1 1 0 1 2 1 1 2 2 4 6 8 9 10 11 12 11 10 10 10 9 9 9 8 7 7
3 4 3 3 4 4 4 4 4 4 4 4 4 4 3 3 3 2 2 1 1 2 3 2 3 3 4 5 6 7 9 10 10 12 12 13 13 12 12 11 11 10 9
3 4 4 4 4 4 4 5 5 5 5 5 5 5 5 4 4 3 3 3 2 2 4 4 3 3 3 4 4 5 7 9 10 13 14 14 13 13 13 12 12 11 11
4 4 4 4 5 5 5 5 5 5 5 6 6 6 7 6 5 4 4 4 3 4 4 4 3 3 3 3 4 5 6 7 9 11 13 15 16 16 15 15 14 13 12
5 5 5 5 5 6 6 5 5 5 6 6 7 7 7 7 6 5 5 5 4 4 4 4 4 3 3 3 3 3 5 4 5 7 10 11 13 15 15 15 14 13 12
6 6 6 6 6 6 6 6 4 6 5 5 6 7 8 10 11 8 6 5 5 5 4 4 5 4 4 3 2 2 4 4 4 4 4 5 7 8 9 11 12 12 11
6 6 7 7 8 7 9 10 7 5 5 5 5 5 6 8 10 11 12 11 9 7 5 5 5 4 3 3 2 2 3 3 2 1 2 3 5 4 7 8 9 10 10
6 7 7 7 7 8 10 10 8 4 6 6 6 5 6 7 7 6 8 9 10 10 8 5 5 4 3 2 2 2 2 3 2 2 2 3 3 4 6 8 9 9 9
6 6 6 6 6 7 10 9 7 5 7 7 7 7 7 7 7 6 6 7 7 7 7 6 5 4 4 2 1 2 2 4 3 2 2 2 2 3 5 6 6 7 8
6 6 6 6 5 6 9 9 7 4 6 7 7 7 7 7 9 8 5 5 5 5 8 9 8 7 7 8 6 3 2 2 2 2 1 1 2 2 2 3 5 5 5
5 6 6 5 5 5 7 10 7 3 5 6 6 7 10 8 9 8 5 4 4 3 3 4 4 4 4 5 7 4 3 2 2 2 1 1 2 1 1 1 4 6 4
Wind_Direction
104 103 60 77 199 158 162 194 196 147 208 230 233 181 134 106 116 129 148 161 162 166 171 176 177 179 182 184 187 190 193 195 196 195 193 193 192 194 194 194 194 195 197
86 97 153 268 279 147 138 205 188 157 217 245 225 167 159 116 129 142 151 164 170 174 179 182 185 187 189 191 194 198 204 205 203 202 203 204 205 206 207 206 207 209 210
135 164 219 222 231 220 176 204 262 216 216 224 191 197 180 154 157 145 155 166 175 185 189 191 193 195 197 199 203 205 207 209 210 210 211 212 213 214 216 216 216 217 218
181 229 237 230 219 225 214 221 240 257 266 292 254 248 202 168 173 180 177 181 180 185 194 199 199 201 204 206 210 211 213 213 212 212 213 215 217 218 220 221 221 221 221
198 226 251 226 239 232 223 242 166 245 289 279 247 224 222 212 194 203 190 191 188 181 184 199 203 205 208 212 215 216 217 217 216 217 218 218 218 219 223 225 226 225 225
214 225 235 214 239 242 225 225 223 243 266 269 274 262 243 230 219 210 197 193 193 187 186 187 192 207 213 215 216 218 219 220 219 220 221 222 222 223 224 226 227 228 229
229 230 277 222 226 237 234 234 222 249 256 251 273 287 270 257 236 209 204 188 195 189 180 175 181 191 203 217 219 219 221 223 224 225 227 227 227 228 229 230 229 229 228
231 229 219 254 247 255 248 265 265 262 269 267 249 275 289 294 283 237 201 194 199 170 177 185 182 179 187 194 212 217 220 223 225 225 226 229 231 233 233 234 235 232 228
228 265 253 268 296 270 226 230 242 246 259 272 235 207 229 248 293 292 244 203 165 149 154 144 159 166 176 179 192 209 214 218 221 223 221 224 229 233 235 236 236 235 233
212 212 219 238 281 305 296 261 225 235 246 264 274 246 244 244 227 288 308 298 166 160 182 194 160 165 175 177 178 181 200 208 213 219 221 223 227 232 235 238 240 240 238
212 185 140 130 303 287 297 302 327 286 272 272 272 273 269 261 233 219 255 286 317 321 261 224 95 120 155 167 166 179 185 196 206 217 223 227 230 236 239 242 245 245 245
177 146 163 187 298 311 303 290 289 279 283 286 291 288 278 269 257 222 230 245 246 262 265 322 87 105 126 122 139 149 171 184 196 209 222 229 230 233 238 246 250 249 248
162 94 84 110 297 307 327 325 291 305 321 318 292 289 292 289 279 243 204 233 254 267 79 54 54 65 73 76 72 80 94 131 163 179 196 216 226 228 228 238 250 259 259
44 83 98 84 51 25 9 9 23 15 22 357 343 345 330 330 331 287 187 181 211 275 44 50 47 59 72 76 77 70 68 80 98 113 119 126 116 98 84 83 73 254 265
58 70 88 77 60 38 24 34 51 27 33 38 23 14 2 346 343 339 347 166 168 175 116 69 61 59 81 83 80 75 74 73 75 79 83 84 81 75 70 69 65 64 69
58 57 56 59 57 47 41 46 55 45 53 39 40 34 14 347 341 1 1 338 158 161 148 83 82 78 87 89 86 84 83 77 77 82 85 84 80 75 71 68 66 68 70
69 67 58 58 58 47 44 49 53 51 51 41 31 34 24 13 8 3 1 31 85 118 123 90 71 82 81 87 95 94 90 88 82 83 85 83 80 75 71 69 67 65 64
73 73 67 63 63 56 51 51 52 50 49 45 39 37 26 27 22 22 21 37 60 97 116 113 98 87 73 94 105 101 97 93 88 82 83 83 80 76 71 68 67 66 65
68 67 66 63 58 58 58 58 62 59 58 52 46 44 36 33 30 29 38 39 47 75 92 106 99 89 78 81 93 90 91 92 92 90 86 80 78 76 72 69 67 66 66
74 69 68 67 64 58 52 54 68 67 66 62 58 55 46 40 31 26 47 41 54 69 85 96 95 86 71 67 82 93 95 83 81 88 89 89 82 76 71 68 66 67 67
84 75 73 69 65 57 40 34 61 73 67 66 69 72 67 62 54 50 59 49 52 64 76 83 84 78 69 73 60 76 90 95 78 80 96 104 100 89 76 66 65 67 67
80 76 73 67 61 55 31 34 45 63 62 62 63 71 80 68 64 65 68 64 59 67 69 76 76 80 75 72 69 93 100 92 85 49 87 97 112 96 94 82 76 74 72
89 81 78 78 72 47 33 32 31 66 71 64 60 53 59 60 58 60 69 71 62 61 66 78 83 73 79 74 87 91 85 95 100 128 106 93 96 96 101 92 88 83 80
96 89 84 86 81 50 32 28 20 85 80 70 63 60 62 51 44 44 71 74 69 59 61 73 76 71 65 54 84 117 127 116 103 83 87 101 97 102 108 116 105 96 85
109 104 97 92 84 51 26 22 17 99 92 82 74 61 60 56 31 41 70 81 86 83 75 85 92 91 80 67 61 69 74 113 120 100 47 89 112 107 117 123 144 135 115
121 114 105 98 91 68 34 27 17 92 108 106 96 79 61 52 38 42 60 64 70 66 81 99 100 94 94 82 68 56 45 67 99 95 55 79 141 141 134 150 160 172 173
Height
1560 1561 1561 1562 1563 1563 1564 1565 1565 1565 1566 1567 1567 1568 1569 1569 1569 1569 1569 1570 1570 1571 1571 1572 1572 1573 1574 1575 1576 1577 1578 1579 1580 1581 1582 1583 1584 1585 1586 1586 1587 1588 1589
1560 1561 1561 1562 1563 1563 1564 1565 1565 1566 1566 1567 1567 1568 1569 1569 1569 1569 1569 1569 1570 1570 1571 1572 1572 1573 1574 1574 1575 1576 1577 1578 1579 1580 1581 1582 1583 1584 1585 1585 1586 1587 1588
1560 1561 1561 1562 1562 1563 1564 1564 1565 1565 1566 1567 1567 1567 1568 1568 1569 1569 1569 1569 1569 1570 1570 1571 1572 1572 1573 1574 1575 1575 1576 1577 1578 1579 1580 1581 1581 1582 1583 1584 1585 1585 1586
1559 1560 1560 1561 1562 1562 1563 1563 1564 1565 1566 1566 1566 1567 1567 1567 1567 1568 1568 1568 1568 1569 1569 1570 1571 1572 1572 1573 1573 1574 1575 1575 1576 1577 1578 1579 1580 1580 1581 1582 1583 1583 1584
1559 1559 1559 1560 1561 1561 1562 1563 1563 1564 1565 1565 1565 1565 1565 1566 1566 1566 1566 1567 1567 1568 1568 1569 1569 1570 1571 1572 1572 1573 1573 1574 1574 1575 1576 1577 1577 1578 1579 1579 1580 1581 1581
1558 1558 1559 1559 1560 1560 1561 1562 1562 1563 1563 1564 1564 1564 1564 1564 1564 1564 1565 1565 1565 1566 1566 1567 1567 1568 1569 1569 1570 1571 1571 1571 1572 1572 1573 1574 1575 1575 1576 1577 1577 1578 1579
1557 1557 1558 1558 1558 1559 1560 1561 1561 1561 1562 1562 1562 1562 1562 1561 1561 1562 1563 1563 1564 1564 1564 1565 1565 1566 1566 1567 1567 1568 1569 1569 1569 1570 1570 1571 1572 1572 1573 1573 1574 1574 1575
1556 1557 1556 1557 1557 1558 1558 1558 1559 1560 1560 1561 1561 1560 1560 1561 1560 1561 1561 1561 1561 1562 1562 1563 1563 1563 1564 1564 1564 1565 1566 1566 1566 1567 1567 1568 1568 1569 1569 1570 1570 1571 1571
1555 1555 1555 1556 1556 1556 1557 1557 1557 1558 1558 1559 1559 1560 1559 1558 1558 1559 1559 1559 1560 1560 1560 1561 1561 1561 1561 1561 1561 1562 1563 1563 1564 1564 1564 1564 1565 1565 1565 1566 1566 1567 1567
1554 1554 1554 1554 1555 1555 1555 1555 1556 1556 1556 1556 1557 1557 1558 1557 1557 1557 1557 1558 1558 1558 1558 1558 1558 1558 1558 1559 1558 1559 1559 1560 1560 1561 1561 1561 1561 1561 1562 1562 1562 1563 1563
1553 1553 1553 1553 1553 1554 1554 1554 1554 1554 1554 1554 1554 1554 1555 1555 1555 1555 1555 1555 1556 1555 1556 1556 1556 1556 1556 1556 1556 1556 1556 1556 1557 1557 1557 1557 1557 1557 1557 1558 1558 1558 1559
1552 1552 1552 1552 1552 1552 1552 1552 1552 1552 1552 1552 1552 1552 1552 1553 1553 1553 1553 1553 1553 1553 1553 1553 1554 1553 1553 1553 1553 1553 1553 1553 1553 1553 1553 1553 1553 1553 1553 1554 1554 1554 1554
1551 1551 1551 1551 1551 1551 1551 1551 1551 1551 1550 1550 1550 1550 1550 1550 1550 1550 1550 1550 1551 1551 1552 1551 1551 1551 1551 1551 1551 1551 1551 1550 1550 1550 1550 1550 1550 1549 1549 1549 1549 1550 1550
1550 1550 1550 1549 1549 1549 1549 1549 1549 1549 1549 1548 1548 1548 1548 1548 1548 1548 1548 1548 1548 1549 1550 1550 1550 1549 1549 1549 1549 1549 1548 1548 1548 1548 1547 1547 1546 1546 1546 1546 1546 1546 1546
1548 1548 1548 1548 1548 1548 1548 1548 1547 1547 1547 1546 1546 1546 1546 1546 1546 1546 1546 1546 1547 1547 1548 1549 1549 1548 1548 1548 1547 1547 1547 1546 1546 1545 1545 1544 1544 1544 1544 1543 1543 1542 1542
1547 1547 1547 1547 1547 1547 1547 1546 1546 1545 1545 1545 1545 1544 1544 1544 1545 1544 1544 1544 1545 1545 1546 1547 1547 1547 1547 1547 1546 1546 1546 1545 1545 1544 1543 1543 1543 1542 1541 1541 1541 1540 1540
1547 1547 1547 1546 1546 1546 1546 1545 1545 1544 1544 1544 1543 1543 1543 1543 1543 1543 1543 1543 1543 1544 1544 1546 1546 1546 1546 1546 1546 1545 1545 1545 1544 1544 1543 1542 1542 1541 1540 1540 1539 1538 1538
1546 1546 1546 1546 1546 1546 1545 1545 1544 1544 1543 1543 1542 1542 1542 1541 1541 1541 1542 1542 1542 1543 1543 1544 1545 1545 1546 1546 1546 1545 1545 1545 1544 1544 1543 1542 1541 1541 1540 1539 1538 1537 1536
1547 1546 1546 1546 1546 1546 1545 1544 1544 1544 1543 1542 1542 1541 1541 1541 1541 1541 1541 1541 1542 1542 1543 1544 1544 1545 1546 1546 1546 1546 1546 1545 1545 1544 1543 1543 1542 1541 1540 1539 1537 1536 1535
1547 1546 1546 1546 1546 1546 1545 1545 1544 1544 1543 1543 1542 1542 1541 1541 1541 1541 1541 1541 1542 1542 1543 1544 1544 1545 1546 1546 1546 1546 1546 1546 1545 1545 1544 1543 1542 1541 1540 1539 1538 1536 1535
1547 1547 1547 1547 1546 1546 1545 1545 1545 1544 1543 1543 1543 1542 1542 1542 1542 1542 1542 1542 1542 1543 1543 1544 1545 1545 1545 1546 1546 1546 1546 1547 1546 1546 1545 1544 1543 1542 1541 1540 1538 1537 1535
1548 1547 1547 1547 1546 1546 1546 1546 1545 1545 1544 1544 1544 1543 1543 1542 1542 1542 1543 1543 1543 1544 1544 1544 1545 1545 1545 1546 1546 1546 1547 1546 1546 1547 1546 1545 1544 1543 1542 1541 1540 1538 1536
1548 1548 1548 1547 1547 1547 1547 1546 1546 1545 1545 1545 1545 1544 1544 1543 1543 1544 1543 1544 1544 1545 1545 1546 1545 1546 1546 1546 1546 1547 1547 1547 1547 1547 1547 1546 1545 1544 1543 1542 1541 1539 1537
1548 1548 1548 1548 1548 1547 1547 1547 1547 1546 1546 1546 1545 1545 1545 1545 1545 1545 1545 1545 1545 1546 1546 1547 1547 1547 1547 1547 1547 1548 1547 1547 1548 1548 1548 1546 1546 1545 1544 1543 1542 1540 1539
1548 1548 1548 1548 1548 1548 1547 1547 1547 1547 1547 1547 1547 1546 1546 1546 1546 1546 1546 1546 1547 1547 1548 1548 1548 1548 1548 1548 1548 1548 1547 1548 1548 1548 1548 1547 1546 1545 1545 1544 1543 1542 1540
1548 1549 1549 1549 1549 1548 1548 1548 1548 1548 1548 1548 1548 1547 1547 1547 1547 1548 1548 1548 1548 1549 1549 1549 1549 1549 1549 1548 1548 1548 1547 1547 1547 1548 1547 1547 1546 1546 1546 1545 1544 1543 1542